User: anonymous   Login
Location: Cuiry
(49.3858°N, 3.7708°E)
Time: 08:23:13
(UTC+00:00)
Language:

Resurs 1-3 - Orbit

View from above orbital plane
View from above orbital plane
View from above satellite
View from above satellite

Ground track
Ground track

The orbit is defined by the following mean orbital elements,

1 23342U          26072.93644666 +.00000000 +00000-0 +11130-3 0 00007
2 23342  97.6710  94.9991 0001937  75.1202 285.0227 14.84951494    09
Epoch (UTC): 13 March 2026 22:28:28
Eccentricity: 0.0001937
inclination: 97.6710°
perigee height: 612 km
apogee height: 615 km
right ascension of ascending node: 94.9991°
argument of perigee: 75.1202°
revolutions per day: 14.84951494
mean anomaly at epoch: 285.0227°

The dashed part of the orbit path shows where the satellite is in the earth's shadow,  

DLR